| time (UTC) | temp F | wind direction | speed MPH | gust MPH | rain 1hr in | rain 24hr in | rain mn in | humidity % | barometer mb |
| 20260502123024 | 39 | 83 | 0.0 | 2.0 | 0.00 | 0.00 | 0.00 | 79 | 1015.3 |
| 20260502121529 | 38 | 236 | 0.0 | 3.0 | 0.00 | 0.00 | 0.00 | 81 | 1015.3 |
| 20260502114522 | 37 | 221 | 0.0 | 0.0 | 0.00 | 0.00 | 0.00 | 88 | 1015.4 |
| 20260502113024 | 36 | 139 | 0.0 | 0.0 | 0.00 | 0.00 | 0.00 | 90 | 1015.2 |
| 20260502111510 | 35 | 138 | 0.0 | 0.0 | 0.00 | 0.00 | 0.00 | 90 | 1015.1 |
| 20260502110014 | 35 | 231 | 0.0 | 0.0 | 0.00 | 0.00 | 0.00 | 89 | 1014.9 |
| 20260502104519 | 35 | 154 | 0.0 | 0.0 | 0.00 | 0.00 | 0.00 | 89 | 1015.1 |
| 20260502103025 | 35 | 170 | 0.0 | 0.0 | 0.00 | 0.00 | 0.00 | 88 | 1015.2 |
| 20260502101534 | 36 | 54 | 0.0 | 0.0 | 0.00 | 0.00 | 0.00 | 87 | 1014.9 |
| 20260502091525 | 37 | 171 | 1.0 | 2.0 | 0.00 | 0.00 | 0.00 | 84 | 1015.3 |
| 20260502071518 | 40 | 224 | 1.0 | 5.0 | 0.00 | 0.00 | 0.00 | 79 | 1015.3 |
| 20260502070022 | 40 | 283 | 1.0 | 5.0 | 0.00 | 0.00 | 0.00 | 79 | 1015.3 |
| 20260502064539 | 40 | 248 | 1.0 | 4.0 | 0.00 | 0.00 | 0.00 | 79 | 1015.1 |
| 20260502063033 | 40 | 277 | 1.0 | 4.0 | 0.00 | 0.00 | 0.00 | 78 | 1015.3 |
| 20260502061512 | 40 | 269 | 1.0 | 3.0 | 0.00 | 0.00 | 0.00 | 78 | 1015.3 |
| 20260502060006 | 42 | 319 | 1.0 | 5.0 | 0.00 | 0.00 | 0.00 | 76 | 1015.2 |
| 20260502054504 | 42 | 314 | 1.0 | 4.0 | 0.00 | 0.00 | 0.00 | 76 | 1015.5 |
| 20260502053008 | 43 | 266 | 2.0 | 6.0 | 0.00 | 0.00 | 0.00 | 76 | 1015.6 |
| 20260502051506 | 43 | 285 | 1.0 | 4.0 | 0.00 | 0.00 | 0.00 | 74 | 1015.7 |
| 20260502050014 | 43 | 265 | 1.0 | 5.0 | 0.00 | 0.00 | 0.00 | 75 | 1015.8 |
| 20260502044509 | 44 | 288 | 3.0 | 9.0 | 0.00 | 0.00 | 0.00 | 72 | 1015.9 |
| 20260502043004 | 44 | 230 | 1.0 | 8.0 | 0.00 | 0.00 | 0.00 | 72 | 1015.8 |
| 20260502041508 | 44 | 47 | 1.0 | 4.0 | 0.00 | 0.00 | 0.00 | 72 | 1015.6 |
| 20260502040007 | 44 | 114 | 3.0 | 14.0 | 0.00 | 0.00 | 0.00 | 73 | 1015.7 |
| 20260502034510 | 45 | 255 | 1.0 | 5.0 | 0.00 | 0.00 | 0.00 | 75 | 1015.7 |
| 20260502033007 | 45 | 268 | 1.0 | 7.0 | 0.00 | 0.00 | 0.00 | 76 | 1015.7 |
| 20260502031503 | 45 | 13 | 2.0 | 9.0 | 0.00 | 0.00 | 0.00 | 74 | 1015.7 |
| 20260502030008 | 45 | 265 | 3.0 | 7.0 | 0.00 | 0.00 | 0.00 | 73 | 1015.6 |
| 20260502024508 | 46 | 317 | 3.0 | 11.0 | 0.00 | 0.00 | 0.00 | 72 | 1015.5 |
| 20260502023010 | 46 | 259 | 4.0 | 8.0 | 0.00 | 0.00 | 0.00 | 71 | 1015.1 |
| 20260502021510 | 46 | 285 | 4.0 | 18.0 | 0.00 | 0.00 | 0.00 | 70 | 1015.4 |
| 20260502020008 | 47 | 111 | 1.0 | 6.0 | 0.00 | 0.00 | 0.00 | 69 | 1015.0 |
| 20260502014531 | 47 | 290 | 1.0 | 8.0 | 0.00 | 0.00 | 0.00 | 68 | 1014.7 |
| 20260502013012 | 47 | 246 | 3.0 | 9.0 | 0.00 | 0.00 | 0.00 | 68 | 1014.6 |
| 20260502011514 | 48 | 263 | 4.0 | 12.0 | 0.00 | 0.00 | 0.00 | 68 | 1014.4 |
| 20260502010015 | 49 | 265 | 3.0 | 8.0 | 0.00 | 0.00 | 0.00 | 69 | 1014.1 |
| 20260502004510 | 49 | 53 | 4.0 | 10.0 | 0.00 | 0.00 | 0.00 | 70 | 1013.8 |
| 20260502003013 | 50 | 313 | 3.0 | 10.0 | 0.00 | 0.00 | 0.00 | 72 | 1013.9 |
| 20260502001522 | 50 | 304 | 2.0 | 14.0 | 0.00 | 0.00 | 0.00 | 71 | 1013.2 |
| 20260502000015 | 51 | 127 | 2.0 | 8.0 | 0.00 | 0.00 | 0.00 | 68 | 1012.9 |
| 20260501234515 | 52 | 316 | 4.0 | 11.0 | 0.00 | 0.00 | 0.00 | 65 | 1012.5 |
| 20260501233011 | 52 | 289 | 2.0 | 13.0 | 0.00 | 0.00 | 0.00 | 63 | 1012.3 |
| 20260501231516 | 54 | 288 | 4.0 | 11.0 | 0.00 | 0.00 | 0.00 | 60 | 1012.1 |
| 20260501230017 | 55 | 303 | 7.0 | 17.0 | 0.00 | 0.00 | 0.00 | 57 | 1012.2 |
| 20260501224518 | 56 | 28 | 4.0 | 15.0 | 0.00 | 0.00 | 0.00 | 52 | 1011.8 |
| 20260501223018 | 58 | 359 | 4.0 | 13.0 | 0.00 | 0.00 | 0.00 | 48 | 1011.6 |
| 20260501221513 | 60 | 335 | 9.0 | 19.0 | 0.00 | 0.00 | 0.00 | 42 | 1011.4 |
| 20260501220017 | 60 | 293 | 8.0 | 18.0 | 0.00 | 0.00 | 0.00 | 36 | 1011.2 |
| 20260501214518 | 61 | 294 | 6.0 | 15.0 | 0.00 | 0.00 | 0.00 | 36 | 1010.9 |
| 20260501213016 | 63 | 245 | 11.0 | 22.0 | 0.00 | 0.00 | 0.00 | 33 | 1010.8 |
| 20260501211520 | 62 | 290 | 9.0 | 17.0 | 0.00 | 0.00 | 0.00 | 32 | 1011.0 |
| 20260501210021 | 62 | 300 | 4.0 | 14.0 | 0.00 | 0.00 | 0.00 | 32 | 1011.1 |
| 20260501204512 | 63 | 297 | 10.0 | 17.0 | 0.00 | 0.00 | 0.00 | 29 | 1011.1 |
| 20260501203015 | 63 | 266 | 6.0 | 13.0 | 0.00 | 0.00 | 0.00 | 29 | 1010.8 |
| 20260501201507 | 64 | 321 | 6.0 | 15.0 | 0.00 | 0.00 | 0.00 | 29 | 1010.8 |
| 20260501200011 | 65 | 207 | 8.0 | 15.0 | 0.00 | 0.00 | 0.00 | 29 | 1010.9 |
| 20260501194512 | 64 | 263 | 14.0 | 35.0 | 0.00 | 0.00 | 0.00 | 24 | 1011.0 |
| 20260501193011 | 64 | 254 | 9.0 | 23.0 | 0.00 | 0.00 | 0.00 | 26 | 1011.1 |
| 20260501191514 | 64 | 279 | 9.0 | 20.0 | 0.00 | 0.00 | 0.00 | 27 | 1011.4 |
| 20260501190006 | 63 | 261 | 8.0 | 14.0 | 0.00 | 0.00 | 0.00 | 28 | 1011.4 |
| 20260501184514 | 64 | 291 | 6.0 | 17.0 | 0.00 | 0.00 | 0.00 | 30 | 1011.4 |
| 20260501183012 | 62 | 306 | 7.0 | 19.0 | 0.00 | 0.00 | 0.00 | 28 | 1011.4 |
| 20260501181521 | 62 | 237 | 2.0 | 10.0 | 0.00 | 0.00 | 0.00 | 36 | 1011.6 |
| 20260501180013 | 61 | 259 | 7.0 | 10.0 | 0.00 | 0.00 | 0.00 | 37 | 1011.8 |
| 20260501174512 | 60 | 34 | 5.0 | 12.0 | 0.00 | 0.00 | 0.00 | 39 | 1012.0 |
| 20260501173019 | 60 | 237 | 3.0 | 11.0 | 0.00 | 0.00 | 0.00 | 45 | 1012.3 |
| 20260501171520 | 60 | 215 | 6.0 | 12.0 | 0.00 | 0.00 | 0.00 | 37 | 1012.6 |
| 20260501170021 | 59 | 269 | 5.0 | 11.0 | 0.00 | 0.00 | 0.00 | 38 | 1012.7 |
| 20260501164514 | 58 | 248 | 1.0 | 12.0 | 0.00 | 0.00 | 0.00 | 35 | 1013.0 |
| 20260501163018 | 58 | 293 | 5.0 | 11.0 | 0.00 | 0.00 | 0.00 | 31 | 1013.1 |
| 20260501161516 | 57 | 111 | 3.0 | 8.0 | 0.00 | 0.00 | 0.00 | 43 | 1013.2 |
| 20260501160019 | 55 | 125 | 3.0 | 10.0 | 0.00 | 0.00 | 0.00 | 46 | 1013.5 |
| 20260501154518 | 54 | 120 | 2.0 | 7.0 | 0.00 | 0.00 | 0.00 | 46 | 1013.7 |
| 20260501153019 | 54 | 205 | 6.0 | 10.0 | 0.00 | 0.00 | 0.00 | 44 | 1013.9 |
| 20260501151514 | 52 | 223 | 3.0 | 8.0 | 0.00 | 0.00 | 0.00 | 50 | 1014.1 |
| 20260501150030 | 50 | 290 | 4.0 | 12.0 | 0.00 | 0.00 | 0.00 | 52 | 1014.3 |
| 20260501144519 | 50 | 111 | 3.0 | 11.0 | 0.00 | 0.00 | 0.00 | 57 | 1014.5 |
| 20260501143020 | 49 | 202 | 4.0 | 9.0 | 0.00 | 0.00 | 0.00 | 61 | 1014.4 |
| 20260501141528 | 48 | 113 | 3.0 | 6.0 | 0.00 | 0.00 | 0.00 | 62 | 1014.7 |